QPF
0.00 0.00 0.00 0.00 0.00 0.00 0.00 0.00 0.00 0.00 0.00 0.00 0.00 0.00 0.00 0.00 0.00 0.00 0.00 0.00 0.00 0.00 0.00 0.00 0.00 0.00 0.00 0.01 0.02 0.03 0.03 0.04 0.05 0.07 0.09 0.11 0.13 0.15
0.00 0.00 0.00 0.00 0.00 0.00 0.00 0.00 0.00 0.00 0.00 0.00 0.00 0.00 0.00 0.00 0.00 0.00 0.00 0.00 0.00 0.00 0.00 0.00 0.00 0.00 0.00 0.00 0.02 0.04 0.05 0.05 0.04 0.04 0.05 0.05 0.06 0.08
0.00 0.00 0.00 0.00 0.00 0.00 0.00 0.00 0.00 0.00 0.00 0.00 0.00 0.00 0.00 0.00 0.00 0.00 0.00 0.00 0.00 0.00 0.00 0.00 0.00 0.00 0.00 0.00 0.00 0.01 0.02 0.04 0.06 0.06 0.05 0.05 0.04 0.04
0.00 0.00 0.00 0.00 0.00 0.00 0.00 0.00 0.00 0.00 0.00 0.00 0.00 0.00 0.00 0.00 0.00 0.00 0.00 0.00 0.00 0.00 0.00 0.00 0.00 0.00 0.00 0.00 0.00 0.00 0.00 0.01 0.02 0.04 0.04 0.04 0.04 0.03
0.00 0.00 0.00 0.00 0.00 0.00 0.00 0.00 0.00 0.00 0.00 0.00 0.00 0.00 0.00 0.00 0.00 0.00 0.00 0.00 0.00 0.00 0.00 0.00 0.00 0.00 0.00 0.00 0.00 0.00 0.00 0.00 0.00 0.01 0.01 0.02 0.03 0.02
0.00 0.00 0.00 0.00 0.00 0.00 0.00 0.00 0.00 0.00 0.00 0.00 0.00 0.00 0.00 0.00 0.00 0.00 0.00 0.00 0.00 0.00 0.00 0.00 0.00 0.00 0.00 0.00 0.00 0.00 0.00 0.00 0.00 0.00 0.00 0.00 0.01 0.02
0.00 0.00 0.00 0.00 0.00 0.00 0.00 0.00 0.00 0.00 0.00 0.00 0.00 0.00 0.00 0.00 0.00 0.00 0.00 0.00 0.00 0.00 0.00 0.00 0.00 0.00 0.00 0.00 0.00 0.00 0.00 0.00 0.00 0.00 0.00 0.00 0.00 0.00
0.01 0.01 0.00 0.00 0.00 0.00 0.00 0.00 0.00 0.00 0.00 0.00 0.00 0.00 0.00 0.00 0.00 0.00 0.00 0.00 0.00 0.00 0.00 0.00 0.00 0.00 0.00 0.00 0.00 0.00 0.00 0.00 0.00 0.00 0.00 0.00 0.00 0.01
0.01 0.01 0.01 0.00 0.00 0.00 0.00 0.00 0.00 0.00 0.00 0.00 0.00 0.00 0.00 0.00 0.00 0.00 0.00 0.00 0.00 0.00 0.00 0.00 0.00 0.00 0.00 0.00 0.00 0.00 0.00 0.00 0.00 0.00 0.00 0.00 0.00 0.00
0.01 0.01 0.00 0.00 0.00 0.00 0.00 0.00 0.00 0.00 0.00 0.00 0.00 0.00 0.00 0.00 0.00 0.00 0.00 0.00 0.00 0.00 0.00 0.00 0.00 0.00 0.00 0.00 0.00 0.00 0.00 0.00 0.00 0.00 0.00 0.00 0.00 0.00
0.01 0.01 0.00 0.00 0.00 0.00 0.00 0.00 0.00 0.00 0.00 0.00 0.00 0.00 0.00 0.00 0.00 0.01 0.00 0.00 0.00 0.00 0.00 0.00 0.00 0.00 0.00 0.00 0.00 0.00 0.00 0.00 0.00 0.00 0.00 0.00 0.00 0.00
0.01 0.00 0.00 0.00 0.00 0.00 0.00 0.00 0.00 0.00 0.00 0.00 0.00 0.00 0.00 0.00 0.00 0.01 0.01 0.01 0.00 0.00 0.00 0.00 0.00 0.00 0.00 0.00 0.00 0.00 0.00 0.00 0.00 0.00 0.00 0.00 0.00 0.00
0.01 0.01 0.01 0.00 0.00 0.00 0.00 0.00 0.00 0.00 0.00 0.00 0.00 0.00 0.00 0.00 0.00 0.00 0.00 0.01 0.01 0.01 0.00 0.01 0.00 0.00 0.00 0.00 0.00 0.00 0.00 0.00 0.00 0.00 0.00 0.00 0.00 0.00
0.02 0.02 0.02 0.02 0.01 0.01 0.01 0.01 0.01 0.01 0.01 0.00 0.00 0.00 0.00 0.00 0.00 0.00 0.01 0.01 0.01 0.01 0.01 0.01 0.02 0.01 0.01 0.01 0.00 0.00 0.00 0.00 0.00 0.00 0.00 0.00 0.00 0.00
0.04 0.04 0.04 0.04 0.04 0.03 0.02 0.01 0.01 0.00 0.00 0.00 0.00 0.00 0.00 0.00 0.00 0.00 0.01 0.01 0.01 0.01 0.01 0.02 0.03 0.03 0.03 0.02 0.01 0.01 0.01 0.01 0.01 0.01 0.01 0.01 0.01 0.01
0.04 0.04 0.04 0.03 0.02 0.01 0.01 0.01 0.00 0.00 0.00 0.00 0.00 0.00 0.00 0.00 0.01 0.01 0.02 0.02 0.03 0.02 0.02 0.03 0.04 0.05 0.04 0.03 0.03 0.02 0.01 0.01 0.01 0.01 0.01 0.01 0.01 0.01
0.03 0.02 0.01 0.00 0.00 0.00 0.00 0.00 0.00 0.00 0.01 0.01 0.01 0.01 0.01 0.01 0.01 0.02 0.03 0.03 0.03 0.03 0.02 0.03 0.04 0.06 0.06 0.06 0.04 0.02 0.01 0.01 0.01 0.01 0.01 0.01 0.00 0.00
0.01 0.00 0.00 0.00 0.00 0.00 0.00 0.00 0.00 0.01 0.01 0.01 0.01 0.01 0.02 0.02 0.02 0.03 0.04 0.04 0.04 0.03 0.03 0.03 0.04 0.05 0.05 0.04 0.04 0.03 0.02 0.01 0.01 0.01 0.01 0.01 0.00 0.00
0.00 0.00 0.00 0.00 0.00 0.00 0.00 0.01 0.01 0.01 0.01 0.01 0.01 0.02 0.03 0.04 0.04 0.04 0.04 0.05 0.05 0.04 0.04 0.04 0.05 0.06 0.05 0.04 0.03 0.04 0.03 0.02 0.02 0.01 0.01 0.01 0.00 0.00
0.00 0.00 0.00 0.00 0.00 0.00 0.01 0.01 0.01 0.01 0.01 0.01 0.02 0.02 0.03 0.04 0.04 0.04 0.05 0.06 0.06 0.06 0.05 0.04 0.04 0.05 0.04 0.03 0.02 0.02 0.02 0.03 0.02 0.01 0.01 0.01 0.01 0.00
0.00 0.01 0.00 0.00 0.01 0.01 0.01 0.01 0.01 0.01 0.01 0.01 0.01 0.02 0.03 0.04 0.04 0.04 0.04 0.05 0.06 0.05 0.04 0.02 0.02 0.03 0.04 0.03 0.02 0.01 0.01 0.01 0.02 0.02 0.01 0.01 0.01 0.00
0.01 0.01 0.01 0.01 0.01 0.01 0.01 0.01 0.01 0.01 0.01 0.01 0.02 0.02 0.03 0.04 0.04 0.04 0.04 0.05 0.04 0.04 0.03 0.02 0.02 0.04 0.05 0.04 0.02 0.01 0.00 0.01 0.01 0.01 0.01 0.01 0.01 0.01
0.02 0.02 0.01 0.01 0.01 0.01 0.01 0.02 0.01 0.01 0.02 0.03 0.03 0.03 0.03 0.04 0.05 0.05 0.05 0.05 0.04 0.04 0.04 0.03 0.03 0.03 0.04 0.04 0.04 0.02 0.01 0.01 0.01 0.01 0.01 0.01 0.01 0.00
MSLP
1019.03 1019.39 1019.75 1020.09 1020.37 1020.57 1020.67 1020.67 1020.57 1020.40 1020.17 1019.90 1019.62 1019.35 1019.08 1018.82 1018.59 1018.38 1018.21 1018.06 1017.96 1017.89 1017.85 1017.83 1017.80 1017.77 1017.72 1017.64 1017.54 1017.43 1017.32 1017.23 1017.18 1017.17 1017.20 1017.27 1017.36 1017.47
1018.81 1019.12 1019.43 1019.73 1019.98 1020.17 1020.29 1020.32 1020.29 1020.19 1020.04 1019.86 1019.63 1019.39 1019.13 1018.85 1018.58 1018.31 1018.05 1017.83 1017.65 1017.51 1017.41 1017.34 1017.30 1017.26 1017.21 1017.15 1017.07 1016.98 1016.89 1016.83 1016.78 1016.77 1016.79 1016.83 1016.89 1016.96
1018.58 1018.84 1019.10 1019.34 1019.54 1019.71 1019.82 1019.89 1019.91 1019.88 1019.81 1019.71 1019.56 1019.37 1019.13 1018.86 1018.56 1018.25 1017.94 1017.64 1017.39 1017.18 1017.02 1016.90 1016.83 1016.77 1016.72 1016.66 1016.60 1016.53 1016.47 1016.42 1016.39 1016.38 1016.41 1016.44 1016.48 1016.52
1018.34 1018.55 1018.75 1018.93 1019.08 1019.21 1019.32 1019.40 1019.46 1019.49 1019.49 1019.47 1019.39 1019.27 1019.08 1018.84 1018.54 1018.21 1017.87 1017.53 1017.22 1016.95 1016.73 1016.57 1016.45 1016.35 1016.28 1016.21 1016.15 1016.08 1016.03 1015.99 1015.97 1015.98 1016.00 1016.04 1016.09 1016.12
1018.06 1018.23 1018.37 1018.50 1018.61 1018.70 1018.79 1018.87 1018.95 1019.03 1019.09 1019.13 1019.12 1019.06 1018.94 1018.74 1018.48 1018.16 1017.82 1017.46 1017.12 1016.82 1016.56 1016.34 1016.17 1016.02 1015.91 1015.80 1015.70 1015.62 1015.55 1015.50 1015.48 1015.49 1015.53 1015.58 1015.63 1015.68
1017.69 1017.82 1017.93 1018.02 1018.09 1018.16 1018.22 1018.30 1018.39 1018.49 1018.59 1018.67 1018.72 1018.72 1018.66 1018.52 1018.31 1018.04 1017.72 1017.39 1017.05 1016.73 1016.44 1016.18 1015.95 1015.75 1015.57 1015.40 1015.25 1015.12 1015.01 1014.93 1014.90 1014.90 1014.94 1015.01 1015.08 1015.15
1017.19 1017.31 1017.40 1017.46 1017.51 1017.55 1017.60 1017.67 1017.75 1017.85 1017.96 1018.07 1018.16 1018.20 1018.19 1018.11 1017.97 1017.76 1017.50 1017.21 1016.91 1016.60 1016.30 1016.02 1015.74 1015.48 1015.23 1014.99 1014.77 1014.56 1014.39 1014.27 1014.20 1014.19 1014.22 1014.30 1014.39 1014.49
1016.54 1016.65 1016.74 1016.80 1016.84 1016.87 1016.91 1016.96 1017.02 1017.11 1017.21 1017.32 1017.41 1017.48 1017.51 1017.48 1017.40 1017.26 1017.08 1016.85 1016.61 1016.34 1016.05 1015.76 1015.46 1015.16 1014.84 1014.53 1014.23 1013.95 1013.72 1013.54 1013.42 1013.38 1013.40 1013.47 1013.58 1013.71
1015.74 1015.85 1015.95 1016.02 1016.07 1016.11 1016.14 1016.17 1016.21 1016.27 1016.34 1016.42 1016.50 1016.57 1016.61 1016.62 1016.59 1016.52 1016.41 1016.27 1016.09 1015.88 1015.63 1015.36 1015.06 1014.73 1014.37 1014.01 1013.64 1013.30 1013.01 1012.77 1012.61 1012.53 1012.53 1012.59 1012.71 1012.84
1014.82 1014.95 1015.06 1015.15 1015.22 1015.27 1015.30 1015.32 1015.34 1015.36 1015.39 1015.42 1015.47 1015.51 1015.54 1015.57 1015.57 1015.56 1015.51 1015.44 1015.34 1015.19 1015.01 1014.78 1014.50 1014.17 1013.81 1013.42 1013.02 1012.64 1012.31 1012.03 1011.83 1011.72 1011.69 1011.73 1011.83 1011.96
1013.86 1014.00 1014.13 1014.25 1014.34 1014.41 1014.44 1014.46 1014.45 1014.43 1014.41 1014.39 1014.38 1014.38 1014.39 1014.40 1014.42 1014.43 1014.44 1014.43 1014.39 1014.31 1014.19 1014.01 1013.78 1013.48 1013.14 1012.77 1012.37 1011.99 1011.65 1011.36 1011.14 1011.00 1010.94 1010.96 1011.02 1011.13
1012.95 1013.10 1013.25 1013.39 1013.50 1013.59 1013.63 1013.63 1013.60 1013.55 1013.48 1013.40 1013.33 1013.28 1013.24 1013.22 1013.23 1013.25 1013.28 1013.30 1013.31 1013.29 1013.22 1013.10 1012.93 1012.69 1012.40 1012.06 1011.71 1011.36 1011.03 1010.75 1010.53 1010.38 1010.30 1010.29 1010.31 1010.38
1012.18 1012.34 1012.50 1012.65 1012.77 1012.86 1012.91 1012.90 1012.85 1012.76 1012.64 1012.51 1012.38 1012.27 1012.17 1012.11 1012.08 1012.08 1012.10 1012.14 1012.17 1012.18 1012.16 1012.09 1011.97 1011.79 1011.56 1011.30 1011.00 1010.71 1010.43 1010.18 1009.98 1009.83 1009.74 1009.69 1009.68 1009.69
1011.62 1011.76 1011.92 1012.07 1012.19 1012.28 1012.31 1012.29 1012.22 1012.09 1011.93 1011.75 1011.56 1011.39 1011.23 1011.12 1011.04 1010.99 1010.98 1011.00 1011.02 1011.04 1011.04 1011.00 1010.93 1010.81 1010.64 1010.44 1010.22 1009.99 1009.77 1009.57 1009.40 1009.27 1009.17 1009.10 1009.05 1009.00
1011.27 1011.40 1011.55 1011.68 1011.78 1011.84 1011.85 1011.80 1011.69 1011.53 1011.33 1011.10 1010.86 1010.63 1010.42 1010.24 1010.10 1010.00 1009.94 1009.91 1009.90 1009.90 1009.89 1009.87 1009.81 1009.73 1009.62 1009.48 1009.32 1009.16 1009.00 1008.85 1008.71 1008.60 1008.50 1008.41 1008.33 1008.24
1011.12 1011.24 1011.35 1011.45 1011.51 1011.53 1011.50 1011.40 1011.25 1011.05 1010.80 1010.52 1010.24 1009.95 1009.68 1009.45 1009.24 1009.08 1008.96 1008.87 1008.81 1008.76 1008.73 1008.69 1008.64 1008.57 1008.49 1008.39 1008.28 1008.17 1008.06 1007.95 1007.84 1007.75 1007.65 1007.55 1007.44 1007.33
1011.12 1011.21 1011.28 1011.33 1011.33 1011.29 1011.19 1011.04 1010.83 1010.57 1010.28 1009.96 1009.62 1009.29 1008.97 1008.68 1008.42 1008.19 1008.01 1007.85 1007.73 1007.63 1007.55 1007.48 1007.41 1007.34 1007.26 1007.19 1007.10 1007.02 1006.94 1006.85 1006.77 1006.68 1006.59 1006.48 1006.36 1006.22
1011.19 1011.24 1011.27 1011.25 1011.18 1011.06 1010.89 1010.66 1010.38 1010.06 1009.71 1009.34 1008.97 1008.59 1008.23 1007.89 1007.57 1007.29 1007.05 1006.84 1006.66 1006.50 1006.37 1006.26 1006.16 1006.07 1005.99 1005.91 1005.84 1005.76 1005.69 1005.61 1005.53 1005.44 1005.34 1005.23 1005.10 1004.95
1011.25 1011.27 1011.24 1011.15 1011.00 1010.79 1010.53 1010.22 1009.87 1009.48 1009.07 1008.65 1008.23 1007.81 1007.41 1007.03 1006.68 1006.36 1006.07 1005.81 1005.58 1005.39 1005.22 1005.07 1004.94 1004.83 1004.73 1004.64 1004.55 1004.47 1004.40 1004.31 1004.23 1004.13 1004.02 1003.89 1003.75 1003.60
1011.26 1011.23 1011.14 1010.98 1010.75 1010.46 1010.11 1009.72 1009.29 1008.83 1008.36 1007.89 1007.43 1006.97 1006.54 1006.13 1005.75 1005.40 1005.08 1004.79 1004.53 1004.31 1004.11 1003.94 1003.79 1003.66 1003.54 1003.44 1003.35 1003.25 1003.16 1003.07 1002.96 1002.85 1002.72 1002.58 1002.43 1002.27
1011.19 1011.11 1010.95 1010.73 1010.43 1010.06 1009.63 1009.16 1008.66 1008.14 1007.62 1007.10 1006.59 1006.11 1005.65 1005.21 1004.81 1004.44 1004.10 1003.80 1003.53 1003.29 1003.08 1002.90 1002.75 1002.61 1002.49 1002.38 1002.27 1002.17 1002.07 1001.96 1001.83 1001.70 1001.56 1001.40 1001.24 1001.07
1011.03 1010.90 1010.69 1010.40 1010.04 1009.61 1009.12 1008.59 1008.03 1007.46 1006.90 1006.34 1005.79 1005.28 1004.79 1004.34 1003.92 1003.54 1003.19 1002.88 1002.61 1002.37 1002.16 1001.98 1001.83 1001.69 1001.57 1001.46 1001.36 1001.25 1001.14 1001.01 1000.88 1000.73 1000.57 1000.40 1000.22 1000.03
1010.81 1010.62 1010.36 1010.02 1009.61 1009.14 1008.61 1008.04 1007.45 1006.84 1006.24 1005.65 1005.08 1004.54 1004.03 1003.56 1003.12 1002.72 1002.36 1002.05 1001.77 1001.54 1001.33 1001.16 1001.02 1000.89 1000.78 1000.67 1000.57 1000.47 1000.35 1000.23 1000.09 999.93 999.76 999.57 999.37 999.17
Thickness
5706 5705 5702 5700 5699 5697 5694 5690 5683 5676 5676 5681 5685 5688 5688 5686 5686 5684 5683 5682 5681 5680 5679 5679 5678 5678 5678 5677 5677 5678 5679 5680 5681 5682 5682 5682 5683 5683
5704 5702 5699 5697 5696 5694 5692 5689 5685 5679 5673 5676 5679 5683 5683 5682 5682 5680 5679 5678 5678 5677 5676 5675 5675 5674 5674 5674 5673 5673 5674 5675 5676 5676 5677 5678 5678 5679
5701 5698 5696 5694 5692 5690 5688 5685 5681 5677 5672 5673 5675 5677 5678 5677 5677 5676 5675 5674 5674 5673 5672 5672 5671 5671 5670 5670 5669 5669 5669 5669 5670 5670 5671 5671 5673 5674
5697 5695 5693 5691 5688 5686 5683 5680 5678 5675 5671 5668 5669 5670 5672 5672 5672 5671 5671 5670 5669 5669 5668 5668 5667 5667 5666 5665 5665 5664 5664 5664 5664 5664 5665 5665 5666 5667
5695 5692 5690 5687 5684 5681 5679 5676 5674 5673 5669 5665 5664 5664 5665 5666 5665 5665 5665 5664 5664 5664 5663 5663 5662 5662 5661 5660 5660 5660 5659 5659 5659 5659 5659 5659 5659 5660
5692 5690 5687 5684 5681 5678 5676 5673 5671 5667 5664 5661 5659 5658 5658 5659 5657 5656 5655 5656 5656 5657 5657 5657 5656 5656 5655 5655 5655 5654 5654 5654 5653 5653 5653 5653 5653 5654
5689 5687 5685 5683 5681 5677 5674 5670 5667 5663 5659 5656 5653 5652 5651 5650 5649 5649 5648 5648 5648 5650 5650 5650 5650 5649 5649 5649 5648 5648 5648 5648 5648 5648 5647 5647 5647 5648
5685 5683 5681 5680 5678 5675 5673 5670 5666 5660 5656 5652 5649 5647 5647 5646 5645 5643 5641 5639 5638 5642 5641 5642 5642 5642 5642 5642 5643 5643 5642 5642 5642 5642 5642 5642 5642 5642
5681 5679 5677 5677 5674 5670 5668 5666 5663 5660 5657 5652 5648 5646 5645 5644 5641 5638 5635 5633 5634 5635 5632 5633 5634 5634 5636 5636 5636 5636 5636 5636 5636 5636 5636 5636 5636 5636
5678 5675 5672 5670 5669 5665 5663 5660 5657 5656 5653 5650 5647 5646 5645 5642 5638 5634 5632 5630 5629 5628 5625 5623 5627 5628 5631 5630 5630 5630 5630 5630 5629 5629 5629 5629 5629 5629
5673 5670 5668 5665 5664 5661 5656 5653 5651 5651 5650 5648 5645 5643 5641 5638 5633 5627 5623 5619 5619 5621 5618 5615 5619 5620 5621 5622 5623 5622 5622 5622 5622 5622 5622 5622 5622 5622
5666 5665 5663 5660 5658 5654 5649 5646 5643 5644 5643 5641 5638 5637 5634 5632 5628 5622 5618 5613 5611 5611 5612 5607 5609 5608 5609 5614 5614 5614 5613 5614 5614 5614 5615 5615 5615 5613
5660 5658 5657 5654 5651 5647 5643 5640 5639 5637 5634 5631 5629 5628 5626 5624 5622 5618 5614 5609 5606 5605 5606 5600 5599 5597 5596 5600 5603 5604 5603 5604 5605 5606 5606 5607 5607 5606
5654 5652 5649 5646 5642 5639 5636 5635 5632 5629 5625 5622 5620 5619 5618 5616 5615 5611 5608 5604 5602 5600 5600 5594 5590 5589 5587 5588 5591 5593 5594 5594 5595 5596 5598 5599 5600 5600
5648 5644 5640 5637 5633 5631 5630 5627 5624 5619 5615 5612 5611 5611 5610 5608 5605 5602 5599 5596 5594 5592 5590 5587 5583 5581 5578 5578 5581 5583 5583 5585 5586 5587 5589 5590 5591 5592
5638 5635 5631 5628 5625 5623 5621 5618 5615 5611 5608 5605 5603 5602 5600 5596 5592 5589 5586 5584 5581 5582 5581 5578 5575 5572 5570 5572 5572 5574 5574 5574 5578 5578 5580 5582 5584 5585
5627 5622 5619 5616 5613 5612 5609 5607 5604 5601 5597 5594 5591 5589 5586 5583 5581 5578 5574 5570 5567 5568 5569 5569 5566 5565 5564 5564 5565 5567 5568 5569 5571 5572 5571 5574 5578 5580
5614 5610 5607 5604 5601 5599 5597 5595 5592 5588 5585 5581 5578 5575 5572 5570 5568 5565 5561 5558 5556 5557 5557 5557 5555 5554 5555 5558 5560 5560 5562 5564 5566 5565 5564 5565 5572 5576
5601 5598 5595 5592 5590 5587 5584 5581 5579 5576 5572 5568 5565 5562 5559 5557 5554 5553 5550 5548 5546 5546 5547 5546 5544 5542 5544 5551 5558 5556 5555 5558 5558 5558 5559 5560 5565 5571
5589 5587 5584 5581 5578 5575 5572 5568 5565 5562 5559 5555 5552 5549 5546 5544 5542 5541 5539 5537 5537 5537 5538 5538 5537 5536 5536 5542 5548 5552 5551 5550 5551 5553 5555 5557 5560 5565
5580 5576 5573 5569 5566 5563 5559 5556 5552 5549 5546 5543 5540 5537 5535 5532 5530 5529 5528 5528 5526 5527 5529 5532 5533 5533 5532 5533 5537 5544 5547 5547 5548 5548 5550 5550 5553 5557
5569 5565 5562 5558 5554 5550 5547 5543 5540 5537 5535 5532 5529 5527 5525 5522 5521 5520 5519 5519 5519 5519 5522 5525 5527 5526 5526 5527 5532 5537 5540 5543 5544 5545 5547 5549 5548 5552
5557 5553 5549 5545 5541 5538 5535 5532 5529 5526 5524 5521 5519 5517 5515 5514 5512 5512 5511 5511 5512 5513 5515 5518 5520 5521 5522 5524 5526 5530 5533 5536 5538 5540 5544 5547 5548 5551